STARLINK-35101

Last updated on Mon Oct 20 2025 00:02:06 GMT+0000 (Coordinated Universal Time)

1 65700U 25212AA 25292.29207647 .00105019 00000+0 18682-2 0 9999 2 65700 53.1581 282.5382 0001599 71.0581 289.0601 15.49351684 5545
UTC large
Height (km)
Speed (km/s)
/
Latitude / Longitude
Inclination (degrees)
Orbital Period (minutes)
Azimuth
Elevation
Range (km)
Doppler Factor

Next 0 passes for location: London (51.5072 / 0.1276)

Sorry there are no passes over London.